FENGYUN 1C DEB

Satellite information

Favourite Embed

Satellite Type and Status

DEBRISIN ORBIT

Key statistics

Satellite FENGYUN 1C DEB at a glance.

Uptime

9557

Days in orbit

Revolutions

≈ 14.1

Per day

Orbit

SSO

Sun Synchronous Orbit

Inclination

98.0

Latest

Satellite identification and parameters

Extended collection of information and parameters for FENGYUN 1C DEB.

Object identification

Identified? True

Debris? True

Object name: FENGYUN 1C DEB

International designator: 1999-025BVK

Object number (NORAD): 31471

Object ID (CCSDS): 31471

Country: PEOPLES REPUBLIC OF CHINA (PRC)

Current information (Y/N): Y

RCS size: SMALL

Orbital parameters

Period: 101.858 minutes

Inclination: 97.9887 deg

SMA: 7224.778 km

Apoapsis: 956.526 km

Periapsis: 736.76 km

RAAN: 86.5299 deg

Eccentricy: 0.0152092

Argument of periapsis: 104.8388 deg

Mean anomaly: 256.969 deg

Mean motion: 14.13728537 rev/day

Mean motion (dot): 0.00002708 rev/day2

B* drag term: 0.0012991 1/REarth

Two-line elements (TLE)

Creation date: July 5, 2025, 6:56 a.m.

Reference frame: TEME

Reference center: EARTH

Epoch: July 4, 2025, 10:59 p.m. UTC

TLE line 0: 0 FENGYUN 1C DEB

TLE line 1: 1 31471U 99025BVK 25185.95787854 .00002708 00000-0 12991-2 0 9996

TLE line 2: 2 31471 97.9887 86.5299 0152092 104.8388 256.9690 14.13728537933201

Live tracking on map

Real-time ground track for satellite FENGYUN 1C DEB.

In-orbit conjunctions

A list of the most updated potential collisions computed for object FENGYUN 1C DEB.

Target Orbit TCA Probability of collision Miss distance Type
FAISAT 2V LEO 2025-01-04 12:35:48 0.000121285 593.0 (m) PAYLOAD

Associated space launch

Chinese polar orbiting meteorological satellite

FENGYUN 1C DEB was lifted into orbit during the mission ‘Long March 4B | Feng Yun 1C’, on board a Long March 4B space rocket.

The launch took place on May 10, 1999, 1:33 a.m. from Launch Complex 7.

For more information about the launch, click the button.

Launch to space Long March 4B | Feng Yun 1C
Long March 4B | Feng Yun 1C

Agency: N/A

Status: Launch Successful

Launch date: May 10, 1999, 1:33 a.m. UTC

Rocket: Long March 4B

Launch pad: Launch Complex 7

Location: Taiyuan Satellite Launch Center, People's Republic of China

...

Latest news about this satellite

There are no fresh news available about this satellite. Check back as we update our databases every day.


Newsletter sign-up

Weekly statistics, charts and insights to help you stay on top of the space industry.